Meadville, PA

12:26 PM EST on December 05, 2019 (GMT -0500)
Port Meadville

Weather History for KGKJ - October, 2019

Change the Weather History Date:

Thursday, October 24, 2019

  Actual Average Record
Temperature  
Mean Temperature 52 °F -  
Max Temperature 60 °F 59 °F 78 °F (1951)
Min Temperature 45 °F 36 °F 22 °F (1969)
Degree Days  
Heating Degree Days 12    
Growing Degree Days 2 (Base 50)    
Moisture  
Dew Point 36 °F    
Average Humidity 58    
Maximum Humidity 86    
Minimum Humidity 47    
Precipitation  
Precipitation 0.00 in - - ()
Sea Level Pressure  
Sea Level Pressure 30.21 in    
Wind  
Wind Speed 7 mph ()    
Max Wind Speed 13 mph    
Max Gust Speed 18 mph    
Visibility 10.0 miles    
Events      
Averages and records for this station are not official NWS values.
T = Trace of Precipitation, MM = Missing Value Source: Averaged Metar Reports

Daily Weather History Graph

Daily Weather History Graph

Search for Another Location

Airport or City:

Astronomy

Oct. 24, 2019 Rise Set
Actual Time 7:42 AM EDT 6:26 PM EDT
Civil Twilight 7:14 AM EDT 6:54 PM EDT
Nautical Twilight 6:42 AM EDT 7:27 PM EDT
Astronomical Twilight 6:10 AM EDT 7:59 PM EDT
Moon 3:06 AM EDT (10/24) 4:57 PM EDT (10/24)
Length of Visible Light 11h 40m
Length of Day
10h 43m
Waning Crescent, 17% of the Moon is Illuminated
Oct 24
Waning Crescent
Oct 27
New
Nov 4
First Quarter
Nov 12
Full
Nov 19
Last Quarter

Hourly Weather History & Observations

Time (EDT) Temp. Windchill Dew Point Humidity Pressure Visibility Wind Dir Wind Speed Gust Speed Precip Events Conditions
12:53 AM 46.0 °F 41.9 °F 30.9 °F 56% 30.15 in 10.0 mi South 8.1 mph - N/A   Clear
1:53 AM 46.0 °F 41.9 °F 30.9 °F 56% 30.16 in 10.0 mi SSW 8.1 mph - N/A   Clear
2:53 AM 46.9 °F - 30.9 °F 54% 30.17 in 10.0 mi South 10.4 mph - N/A   Clear
3:53 AM 46.0 °F 43.1 °F 30.9 °F 56% 30.17 in 10.0 mi Variable 5.8 mph - N/A   Clear
4:53 AM 48.0 °F - 30.0 °F 50% 30.15 in 10.0 mi South 9.2 mph 18.4 mph N/A   Overcast
5:53 AM 48.0 °F - 30.0 °F 50% 30.16 in 10.0 mi Variable 5.8 mph - N/A   Mostly Cloudy
6:53 AM 48.9 °F - 30.0 °F 48% 30.16 in 10.0 mi Variable 6.9 mph - N/A   Overcast
7:53 AM 48.9 °F - 30.0 °F 48% 30.19 in 10.0 mi SSW 6.9 mph - N/A   Overcast
8:53 AM 48.9 °F - 30.9 °F 50% 30.21 in 10.0 mi SSW 6.9 mph - N/A   Overcast
9:53 AM 51.1 °F - 32.0 °F 48% 30.22 in 10.0 mi SSW 9.2 mph - N/A   Overcast
10:53 AM 52.0 °F - 34.0 °F 50% 30.21 in 10.0 mi SSW 8.1 mph - N/A   Overcast
11:53 AM 54.0 °F - 34.0 °F 47% 30.22 in 10.0 mi SSW 11.5 mph 17.3 mph N/A   Overcast
12:53 PM 57.0 °F - 37.0 °F 47% 30.22 in 10.0 mi WSW 5.8 mph - N/A   Overcast
1:53 PM 57.9 °F - 37.9 °F 47% 30.22 in 10.0 mi WSW 12.7 mph 17.3 mph N/A   Partly Cloudy
2:53 PM 60.1 °F - 39.9 °F 47% 30.21 in 10.0 mi Variable 4.6 mph - N/A   Clear
3:53 PM 60.1 °F - 39.9 °F 47% 30.23 in 10.0 mi WSW 6.9 mph - N/A   Clear
4:53 PM 59.0 °F - 39.9 °F 49% 30.23 in 10.0 mi Variable 4.6 mph - N/A   Clear
5:53 PM 53.1 °F - 44.1 °F 71% 30.24 in 10.0 mi North 5.8 mph - N/A   Clear
6:53 PM 50.0 °F - 43.0 °F 77% 30.26 in 10.0 mi North 5.8 mph - N/A   Clear
7:53 PM 48.0 °F - 42.1 °F 80% 30.27 in 10.0 mi North 6.9 mph - N/A   Clear
8:53 PM 48.0 °F - 42.1 °F 80% 30.27 in 10.0 mi NNE 5.8 mph - N/A   Clear
10:53 PM 45.0 °F 41.8 °F 41.0 °F 86% 30.30 in 10.0 mi NE 5.8 mph - N/A   Scattered Clouds
11:53 PM 46.9 °F - 42.1 °F 83% 30.30 in 10.0 mi ENE 4.6 mph - N/A   Overcast